Location: Los Ranchitos
(37.9930°N, 122.5425°W)
Time: 02:37:49
(UTC+00:00)

USA 238 DEB - Pass Details

Date: 21 September 2020
Orbit: 1006 x 1206 km, 63.4° (Epoch: 15 October)

Event Time Altitude Azimuth Distance (km) Brightness Sun altitude
Rises 04:53:36 0° 322° (NW) 3,986 7.6 -31.9°
Reaches altitude 10° 04:56:19 10° 318° (NW) 3,050 6.9 -32.3°
Maximum altitude 05:03:24 54° 244° (WSW) 1,405 4.3 -33.5°
Enters shadow 05:04:14 52° 221° (SW) 1,444 4.3 -33.7°
